Tracking 20721 objects as of 2-Jun-2020
HD Live streaming from Space Station
objects crossing your sky now

COSMOS 1867 COOLANT

Track COSMOS 1867 COOLANT now!
10-day predictions


NORAD ID: 39674
Int'l Code: 1987-060AM
Perigee: 783.6 km
Apogee: 802.8 km
Inclination: 65.0 °
Period: 100.6 minutes
Semi major axis: 7164 km
RCS: Unknown
Launch date: July 10, 1987
Source: Commonwealth of Independent States (former USSR) (CIS)
Launch site: TYURATAM MISSILE AND SPACE COMPLEX (TTMTR)

Note: This is SATELLITE DEBRIS
aabbcc
Your satellite tracking list
Your tracking list is empty




NASA's NSSDC Master Catalog

Two Line Element Set (TLE):
1 39674U 87060AM  20150.53888597 +.00000020 +00000-0 +45047-4 0  9997
2 39674 065.0111 090.2296 0013379 271.4221 088.5331 14.31695040320124
Source of the keplerian elements: AFSPC